Estación de Contra Coronel
Ultimos registro cada 15 minutos 34
| N° | Estación | Fecha / Hora | Temperatura | Humedad | Lluvia | Velocidad | Dirección | Radiación | Presion |
| 34 | Contra Coronel | 31-08-2026 08:15 | 4,6 | 100 | 0 | 0,7 | 25 | 66,9 | 1016,4 |
| 33 | Contra Coronel | 31-08-2026 08:00 | 4,2 | 100 | 0 | 0 | 3 | 46,9 | 1016,2 |
| 32 | Contra Coronel | 31-08-2026 07:45 | 3,9 | 100 | 0 | 0 | 3 | 25,6 | 1016,2 |
| 31 | Contra Coronel | 31-08-2026 07:30 | 3,8 | 100 | 0 | 0 | 3 | 9,4 | 1016 |
| 30 | Contra Coronel | 31-08-2026 07:15 | 3,9 | 100 | 0 | 0 | 14 | 0,6 | 1015,8 |
| 29 | Contra Coronel | 31-08-2026 07:00 | 3,8 | 100 | 0 | 0,7 | 7 | 0,6 | 1015,6 |
| 28 | Contra Coronel | 31-08-2026 06:45 | 3,8 | 100 | 0 | 0 | 8 | 0,6 | 1015,6 |
| 27 | Contra Coronel | 31-08-2026 06:30 | 3,2 | 100 | 0 | 0 | 8 | 0,6 | 1015,5 |
| 26 | Contra Coronel | 31-08-2026 06:15 | 3,4 | 100 | 0 | 0 | 8 | 0,6 | 1015,2 |
| 25 | Contra Coronel | 31-08-2026 06:00 | 3,1 | 100 | 0 | 0 | 8 | 0,6 | 1015,2 |
| 24 | Contra Coronel | 31-08-2026 05:45 | 3,5 | 100 | 0 | 0 | 8 | 0,6 | 1015 |
| 23 | Contra Coronel | 31-08-2026 05:30 | 3,7 | 100 | 0 | 0 | 8 | 0,6 | 1014,7 |
| 22 | Contra Coronel | 31-08-2026 05:15 | 3,8 | 100 | 0 | 0,3 | 8 | 0,6 | 1014,5 |
| 21 | Contra Coronel | 31-08-2026 05:00 | 3,9 | 100 | 0 | 0,7 | 10 | 0,6 | 1014,5 |
| 20 | Contra Coronel | 31-08-2026 04:45 | 3,5 | 100 | 0 | 0,3 | 38 | 0,6 | 1014,5 |
| 19 | Contra Coronel | 31-08-2026 04:30 | 3,4 | 100 | 0 | 0,3 | 38 | 0,6 | 1014,4 |
| 18 | Contra Coronel | 31-08-2026 04:15 | 2,8 | 100 | 0 | 0 | 77 | 0,6 | 1014,5 |
| 17 | Contra Coronel | 31-08-2026 04:00 | 3,3 | 100 | 0 | 0 | 77 | 0,6 | 1014,3 |
| 16 | Contra Coronel | 31-08-2026 03:45 | 3,5 | 100 | 0 | 0 | 77 | 0,6 | 1014,1 |
| 15 | Contra Coronel | 31-08-2026 03:30 | 2,1 | 100 | 0 | 0 | 74 | 0,6 | 1013,9 |
| 14 | Contra Coronel | 31-08-2026 03:15 | 1,5 | 100 | 0 | 0 | 32 | 0,6 | 1013,8 |
| 13 | Contra Coronel | 31-08-2026 03:00 | 1,4 | 100 | 0 | 0 | 32 | 0,6 | 1013,8 |
| 12 | Contra Coronel | 31-08-2026 02:45 | 1,5 | 100 | 0 | 0 | 32 | 0,6 | 1013,8 |
| 11 | Contra Coronel | 31-08-2026 02:30 | 2 | 100 | 0 | 0 | 32 | 0,6 | 1013,7 |
| 10 | Contra Coronel | 31-08-2026 02:15 | 2,5 | 100 | 0 | 0 | 31 | 0,6 | 1013,4 |
| 9 | Contra Coronel | 31-08-2026 02:00 | 3,3 | 100 | 0 | 0 | 31 | 0,6 | 1013,4 |
| 8 | Contra Coronel | 31-08-2026 01:45 | 3,2 | 100 | 0 | 0 | 67 | 0,6 | 1013,2 |
| 7 | Contra Coronel | 31-08-2026 01:30 | 2,8 | 100 | 0 | 0 | 83 | 0,6 | 1013 |
| 6 | Contra Coronel | 31-08-2026 01:15 | 1,9 | 100 | 0 | 0 | 83 | 0,6 | 1013 |
| 5 | Contra Coronel | 31-08-2026 01:00 | 1,8 | 100 | 0 | 0 | 83 | 0,6 | 1013,2 |
| 4 | Contra Coronel | 31-08-2026 00:45 | 2,8 | 100 | 0 | 0 | 135 | 0,6 | 1013,2 |
| 3 | Contra Coronel | 31-08-2026 00:30 | 2,5 | 100 | 0 | 0 | 183 | 0,6 | 1013,1 |
| 2 | Contra Coronel | 31-08-2026 00:15 | 3,2 | 100 | 0 | 0 | 41 | 0,6 | 1013 |
| 1 | Contra Coronel | 31-08-2026 00:00 | 3,4 | 100 | 0 | 0 | 41 | 0,6 | 1012,8 |